Year,Month,Day,Hour,Minute,Value (Times are PST for temperature in C)
2015,09,26,00,00,10.70
2015,09,26,00,01,10.70
2015,09,26,00,02,10.60
2015,09,26,00,03,10.60
2015,09,26,00,04,10.60
2015,09,26,00,05,10.60
2015,09,26,00,06,10.60
2015,09,26,00,07,10.60
2015,09,26,00,08,10.60
2015,09,26,00,09,10.60
2015,09,26,00,10,10.60
2015,09,26,00,11,10.60
2015,09,26,00,12,10.60
2015,09,26,00,13,10.60
2015,09,26,00,14,10.60
2015,09,26,00,15,10.50
2015,09,26,00,16,10.40
2015,09,26,00,17,10.40
2015,09,26,00,18,10.40
2015,09,26,00,19,10.40
2015,09,26,00,20,10.30
2015,09,26,00,21,10.30
2015,09,26,00,22,10.30
2015,09,26,00,23,10.20
2015,09,26,00,24,10.20
2015,09,26,00,25,10.20
2015,09,26,00,26,10.10
2015,09,26,00,27,10.10
2015,09,26,00,28,10.10
2015,09,26,00,29,10.10
2015,09,26,00,30,10.10
2015,09,26,00,31,10.10
2015,09,26,00,32,10.10
2015,09,26,00,33,10.10
2015,09,26,00,34,10.10
2015,09,26,00,35,10.10
2015,09,26,00,36,10.10
2015,09,26,00,37,10.00
2015,09,26,00,38,9.90
2015,09,26,00,39,9.90
2015,09,26,00,40,9.90
2015,09,26,00,41,9.90
2015,09,26,00,42,9.90
2015,09,26,00,43,9.90
2015,09,26,00,44,9.90
2015,09,26,00,45,9.90
2015,09,26,00,46,9.90
2015,09,26,00,47,9.90
2015,09,26,00,48,9.90
2015,09,26,00,49,9.90
2015,09,26,00,50,9.90
2015,09,26,00,51,9.90
2015,09,26,00,52,9.90
2015,09,26,00,53,9.90
2015,09,26,00,54,9.90
2015,09,26,00,55,9.90
2015,09,26,00,56,9.90
2015,09,26,00,57,9.90
2015,09,26,00,58,9.90
2015,09,26,00,59,9.90
2015,09,26,01,00,10.00
2015,09,26,01,01,10.10
2015,09,26,01,02,10.10
2015,09,26,01,03,10.10
2015,09,26,01,04,10.10
2015,09,26,01,05,10.10
2015,09,26,01,06,10.10
2015,09,26,01,07,10.10
2015,09,26,01,08,10.10
2015,09,26,01,09,10.10
2015,09,26,01,10,10.10
2015,09,26,01,11,10.10
2015,09,26,01,12,10.10
2015,09,26,01,13,10.10
2015,09,26,01,14,10.10
2015,09,26,01,15,10.10
2015,09,26,01,16,10.10
2015,09,26,01,17,10.10
2015,09,26,01,18,10.10
2015,09,26,01,19,10.10
2015,09,26,01,20,10.10
2015,09,26,01,21,10.10
2015,09,26,01,22,10.10
2015,09,26,01,23,10.10
2015,09,26,01,24,10.10
2015,09,26,01,25,10.10
2015,09,26,01,26,10.10
2015,09,26,01,27,10.10
2015,09,26,01,28,10.10
2015,09,26,01,29,10.10
2015,09,26,01,30,10.10
2015,09,26,01,31,10.10
2015,09,26,01,32,10.10
2015,09,26,01,33,10.10
2015,09,26,01,34,10.10
2015,09,26,01,35,10.10
2015,09,26,01,36,10.10
2015,09,26,01,37,10.10
2015,09,26,01,38,10.20
2015,09,26,01,39,10.20
2015,09,26,01,40,10.20
2015,09,26,01,41,10.20
2015,09,26,01,42,10.20
2015,09,26,01,43,10.20
2015,09,26,01,44,10.20
2015,09,26,01,45,10.30
2015,09,26,01,46,10.30
2015,09,26,01,47,10.30
2015,09,26,01,48,10.20
2015,09,26,01,49,10.30
2015,09,26,01,50,10.30
2015,09,26,01,51,10.30
2015,09,26,01,52,10.30
2015,09,26,01,53,10.30
2015,09,26,01,54,10.30
2015,09,26,01,55,10.30
2015,09,26,01,56,10.30
2015,09,26,01,57,10.30
2015,09,26,01,58,10.30
2015,09,26,01,59,10.20
2015,09,26,02,00,10.20
2015,09,26,02,01,10.20
2015,09,26,02,02,10.30
2015,09,26,02,03,10.30
2015,09,26,02,04,10.30
2015,09,26,02,05,10.30
2015,09,26,02,06,10.30
2015,09,26,02,07,10.30
2015,09,26,02,08,10.30
2015,09,26,02,09,10.40
2015,09,26,02,10,10.40
2015,09,26,02,11,10.40
2015,09,26,02,12,10.40
2015,09,26,02,13,10.40
2015,09,26,02,14,10.40
2015,09,26,02,15,10.40
2015,09,26,02,16,10.40
2015,09,26,02,17,10.40
2015,09,26,02,18,10.40
2015,09,26,02,19,10.40
2015,09,26,02,20,10.40
2015,09,26,02,21,10.40
2015,09,26,02,22,10.40
2015,09,26,02,23,10.40
2015,09,26,02,24,10.40
2015,09,26,02,25,10.40
2015,09,26,02,26,10.40
2015,09,26,02,27,10.40
2015,09,26,02,28,10.40
2015,09,26,02,29,10.40
2015,09,26,02,30,10.40
2015,09,26,02,31,10.40
2015,09,26,02,32,10.40
2015,09,26,02,33,10.40
2015,09,26,02,34,10.40
2015,09,26,02,35,10.40
2015,09,26,02,36,10.40
2015,09,26,02,37,10.40
2015,09,26,02,38,10.40
2015,09,26,02,39,10.40
2015,09,26,02,40,10.40
2015,09,26,02,41,10.40
2015,09,26,02,42,10.40
2015,09,26,02,43,10.40
2015,09,26,02,44,10.40
2015,09,26,02,45,10.40
2015,09,26,02,46,10.40
2015,09,26,02,47,10.40
2015,09,26,02,48,10.40
2015,09,26,02,49,10.40
2015,09,26,02,50,10.40
2015,09,26,02,51,10.40
2015,09,26,02,52,10.40
2015,09,26,02,53,10.40
2015,09,26,02,54,10.40
2015,09,26,02,55,10.30
2015,09,26,02,56,10.30
2015,09,26,02,57,10.30
2015,09,26,02,58,10.30
2015,09,26,02,59,10.20
2015,09,26,03,00,10.20
2015,09,26,03,01,10.20
2015,09,26,03,02,10.10
2015,09,26,03,03,10.10
2015,09,26,03,04,10.10
2015,09,26,03,05,10.10
2015,09,26,03,06,10.10
2015,09,26,03,07,10.10
2015,09,26,03,08,10.00
2015,09,26,03,09,9.90
2015,09,26,03,10,9.90
2015,09,26,03,11,9.90
2015,09,26,03,12,9.90
2015,09,26,03,13,9.90
2015,09,26,03,14,9.90
2015,09,26,03,15,9.90
2015,09,26,03,16,9.90
2015,09,26,03,17,9.90
2015,09,26,03,18,9.90
2015,09,26,03,19,9.90
2015,09,26,03,20,9.90
2015,09,26,03,21,9.90
2015,09,26,03,22,9.90
2015,09,26,03,23,9.90
2015,09,26,03,24,9.80
2015,09,26,03,25,9.80
2015,09,26,03,26,9.80
2015,09,26,03,27,9.70
2015,09,26,03,28,9.70
2015,09,26,03,29,9.70
2015,09,26,03,30,9.70
2015,09,26,03,31,9.60
2015,09,26,03,32,9.60
2015,09,26,03,33,9.50
2015,09,26,03,34,9.50
2015,09,26,03,35,9.40
2015,09,26,03,36,9.40
2015,09,26,03,37,9.40
2015,09,26,03,38,9.30
2015,09,26,03,39,9.30
2015,09,26,03,40,9.30
2015,09,26,03,41,9.30
2015,09,26,03,42,9.20
2015,09,26,03,43,9.20
2015,09,26,03,44,9.20
2015,09,26,03,45,9.20
2015,09,26,03,46,9.20
2015,09,26,03,47,9.20
2015,09,26,03,48,9.20
2015,09,26,03,49,9.20
2015,09,26,03,50,9.20
2015,09,26,03,51,9.20
2015,09,26,03,52,9.20
2015,09,26,03,53,9.20
2015,09,26,03,54,9.20
2015,09,26,03,55,9.20
2015,09,26,03,56,9.10
2015,09,26,03,57,9.10
2015,09,26,03,58,9.10
2015,09,26,03,59,9.00
2015,09,26,04,00,9.00
2015,09,26,04,01,9.00
2015,09,26,04,02,9.00
2015,09,26,04,03,8.90
2015,09,26,04,04,8.90
2015,09,26,04,05,8.90
2015,09,26,04,06,8.90
2015,09,26,04,07,8.90
2015,09,26,04,08,8.80
2015,09,26,04,09,8.80
2015,09,26,04,10,8.70
2015,09,26,04,11,8.70
2015,09,26,04,12,8.70
2015,09,26,04,13,8.70
2015,09,26,04,14,8.70
2015,09,26,04,15,8.70
2015,09,26,04,16,8.70
2015,09,26,04,17,8.70
2015,09,26,04,18,8.70
2015,09,26,04,19,8.70
2015,09,26,04,20,8.70
2015,09,26,04,21,8.70
2015,09,26,04,22,8.70
2015,09,26,04,23,8.60
2015,09,26,04,24,8.60
2015,09,26,04,25,8.60
2015,09,26,04,26,8.50
2015,09,26,04,27,8.50
2015,09,26,04,28,8.50
2015,09,26,04,29,8.50
2015,09,26,04,30,8.50
2015,09,26,04,31,8.50
2015,09,26,04,32,8.50
2015,09,26,04,33,8.60
2015,09,26,04,34,8.60
2015,09,26,04,35,8.60
2015,09,26,04,36,8.60
2015,09,26,04,37,8.60
2015,09,26,04,38,8.60
2015,09,26,04,39,8.50
2015,09,26,04,40,8.50
2015,09,26,04,41,8.50
2015,09,26,04,42,8.50
2015,09,26,04,43,8.50
2015,09,26,04,44,8.50
2015,09,26,04,45,8.50
2015,09,26,04,46,8.50
2015,09,26,04,47,8.50
2015,09,26,04,48,8.50
2015,09,26,04,49,8.40
2015,09,26,04,50,8.40
2015,09,26,04,51,8.40
2015,09,26,04,52,8.40
2015,09,26,04,53,8.40
2015,09,26,04,54,8.40
2015,09,26,04,55,8.50
2015,09,26,04,56,8.40
2015,09,26,04,57,8.40
2015,09,26,04,58,8.40
2015,09,26,04,59,8.40
2015,09,26,05,00,8.40
2015,09,26,05,01,8.40
2015,09,26,05,02,8.40
2015,09,26,05,03,8.40
2015,09,26,05,04,8.40
2015,09,26,05,05,8.40
2015,09,26,05,06,8.30
2015,09,26,05,07,8.30
2015,09,26,05,08,8.30
2015,09,26,05,09,8.30
2015,09,26,05,10,8.20
2015,09,26,05,11,8.20
2015,09,26,05,12,8.20
2015,09,26,05,13,8.20
2015,09,26,05,14,8.20
2015,09,26,05,15,8.20
2015,09,26,05,16,8.20
2015,09,26,05,17,8.20
2015,09,26,05,18,8.20
2015,09,26,05,19,8.20
2015,09,26,05,20,8.20
2015,09,26,05,21,8.20
2015,09,26,05,22,8.20
2015,09,26,05,23,8.20
2015,09,26,05,24,8.20
2015,09,26,05,25,8.10
2015,09,26,05,26,8.10
2015,09,26,05,27,8.10
2015,09,26,05,28,8.00
2015,09,26,05,29,8.00
2015,09,26,05,30,7.90
2015,09,26,05,31,7.90
2015,09,26,05,32,7.90
2015,09,26,05,33,7.80
2015,09,26,05,34,7.80
2015,09,26,05,35,7.80
2015,09,26,05,36,7.80
2015,09,26,05,37,7.70
2015,09,26,05,38,7.70
2015,09,26,05,39,7.70
2015,09,26,05,40,7.70
2015,09,26,05,41,7.70
2015,09,26,05,42,7.70
2015,09,26,05,43,7.70
2015,09,26,05,44,7.70
2015,09,26,05,45,7.70
2015,09,26,05,46,7.70
2015,09,26,05,47,7.70
2015,09,26,05,48,7.60
2015,09,26,05,49,7.60
2015,09,26,05,50,7.60
2015,09,26,05,51,7.60
2015,09,26,05,52,7.50
2015,09,26,05,53,7.50
2015,09,26,05,54,7.50
2015,09,26,05,55,7.50
2015,09,26,05,56,7.50
2015,09,26,05,57,7.50
2015,09,26,05,58,7.40
2015,09,26,05,59,7.40
2015,09,26,06,00,7.40
2015,09,26,06,01,7.40
2015,09,26,06,02,7.40
2015,09,26,06,03,7.30
2015,09,26,06,04,7.30
2015,09,26,06,05,7.30
2015,09,26,06,06,7.30
2015,09,26,06,07,7.30
2015,09,26,06,08,7.30
2015,09,26,06,09,7.30
2015,09,26,06,10,7.30
2015,09,26,06,11,7.30
2015,09,26,06,12,7.20
2015,09,26,06,13,7.20
2015,09,26,06,14,7.20
2015,09,26,06,15,7.10
2015,09,26,06,16,7.10
2015,09,26,06,17,7.10
2015,09,26,06,18,7.10
2015,09,26,06,19,7.10
2015,09,26,06,20,7.10
2015,09,26,06,21,7.10
2015,09,26,06,22,7.10
2015,09,26,06,23,7.10
2015,09,26,06,24,7.10
2015,09,26,06,25,7.10
2015,09,26,06,26,7.10
2015,09,26,06,27,7.10
2015,09,26,06,28,7.10
2015,09,26,06,29,7.00
2015,09,26,06,30,7.00
2015,09,26,06,31,7.00
2015,09,26,06,32,7.00
2015,09,26,06,33,7.00
2015,09,26,06,34,7.00
2015,09,26,06,35,6.90
2015,09,26,06,36,6.90
2015,09,26,06,37,7.00
2015,09,26,06,38,7.00
2015,09,26,06,39,7.00
2015,09,26,06,40,7.00
2015,09,26,06,41,7.00
2015,09,26,06,42,7.10
2015,09,26,06,43,7.10
2015,09,26,06,44,7.20
2015,09,26,06,45,7.20
2015,09,26,06,46,7.20
2015,09,26,06,47,7.20
2015,09,26,06,48,7.20
2015,09,26,06,49,7.20
2015,09,26,06,50,7.20
2015,09,26,06,51,7.10
2015,09,26,06,52,7.10
2015,09,26,06,53,7.10
2015,09,26,06,54,7.00
2015,09,26,06,55,7.00
2015,09,26,06,56,7.00
2015,09,26,06,57,7.00
2015,09,26,06,58,7.00
2015,09,26,06,59,7.00
2015,09,26,07,00,7.10
2015,09,26,07,01,7.10
2015,09,26,07,02,7.20
2015,09,26,07,03,7.20
2015,09,26,07,04,7.20
2015,09,26,07,05,7.20
2015,09,26,07,06,7.20
2015,09,26,07,07,7.20
2015,09,26,07,08,7.10
2015,09,26,07,09,7.10
2015,09,26,07,10,7.10
2015,09,26,07,11,7.10
2015,09,26,07,12,7.20
2015,09,26,07,13,7.20
2015,09,26,07,14,7.20
2015,09,26,07,15,7.20
2015,09,26,07,16,7.30
2015,09,26,07,17,7.30
2015,09,26,07,18,7.30
2015,09,26,07,19,7.30
2015,09,26,07,20,7.30
2015,09,26,07,21,7.30
2015,09,26,07,22,7.30
2015,09,26,07,23,7.30
2015,09,26,07,24,7.30
2015,09,26,07,25,7.30
2015,09,26,07,26,7.30
2015,09,26,07,27,7.30
2015,09,26,07,28,7.30
2015,09,26,07,29,7.30
2015,09,26,07,30,7.30
2015,09,26,07,31,7.30
2015,09,26,07,32,7.30
2015,09,26,07,33,7.30
2015,09,26,07,34,7.40
2015,09,26,07,35,7.40
2015,09,26,07,36,7.40
2015,09,26,07,37,7.40
2015,09,26,07,38,7.50
2015,09,26,07,39,7.50
2015,09,26,07,40,7.50
2015,09,26,07,41,7.60
2015,09,26,07,42,7.60
2015,09,26,07,43,7.60
2015,09,26,07,44,7.70
2015,09,26,07,45,7.70
2015,09,26,07,46,7.70
2015,09,26,07,47,7.80
2015,09,26,07,48,7.80
2015,09,26,07,49,7.80
2015,09,26,07,50,7.80
2015,09,26,07,51,7.80
2015,09,26,07,52,7.80
2015,09,26,07,53,7.90
2015,09,26,07,54,7.90
2015,09,26,07,55,7.90
2015,09,26,07,56,7.90
2015,09,26,07,57,7.90
2015,09,26,07,58,7.90
2015,09,26,07,59,7.90
2015,09,26,08,00,8.00
2015,09,26,08,01,8.00
2015,09,26,08,02,8.00
2015,09,26,08,03,8.10
2015,09,26,08,04,8.10
2015,09,26,08,05,8.20
2015,09,26,08,06,8.20
2015,09,26,08,07,8.20
2015,09,26,08,08,8.20
2015,09,26,08,09,8.20
2015,09,26,08,10,8.20
2015,09,26,08,11,8.30
2015,09,26,08,12,8.30
2015,09,26,08,13,8.30
2015,09,26,08,14,8.40
2015,09,26,08,15,8.40
2015,09,26,08,16,8.40
2015,09,26,08,17,8.50
2015,09,26,08,18,8.50
2015,09,26,08,19,8.50
2015,09,26,08,20,8.60
2015,09,26,08,21,8.60
2015,09,26,08,22,8.60
2015,09,26,08,23,8.70
2015,09,26,08,24,8.70
2015,09,26,08,25,8.70
2015,09,26,08,26,8.70
2015,09,26,08,27,8.70
2015,09,26,08,28,8.70
2015,09,26,08,29,8.80
2015,09,26,08,30,8.80
2015,09,26,08,31,8.80
2015,09,26,08,32,8.90
2015,09,26,08,33,8.90
2015,09,26,08,34,8.90
2015,09,26,08,35,8.90
2015,09,26,08,36,9.00
2015,09,26,08,37,9.00
2015,09,26,08,38,9.10
2015,09,26,08,39,9.10
2015,09,26,08,40,9.10
2015,09,26,08,41,9.20
2015,09,26,08,42,9.20
2015,09,26,08,43,9.20
2015,09,26,08,44,9.20
2015,09,26,08,45,9.30
2015,09,26,08,46,9.30
2015,09,26,08,47,9.40
2015,09,26,08,48,9.40
2015,09,26,08,49,9.40
2015,09,26,08,50,9.50
2015,09,26,08,51,9.50
2015,09,26,08,52,9.60
2015,09,26,08,53,9.60
2015,09,26,08,54,9.70
2015,09,26,08,55,9.70
2015,09,26,08,56,9.70
2015,09,26,08,57,9.80
2015,09,26,08,58,9.80
2015,09,26,08,59,9.90
2015,09,26,09,00,9.90
2015,09,26,09,01,9.90
2015,09,26,09,02,9.90
2015,09,26,09,03,9.90
2015,09,26,09,04,10.00
2015,09,26,09,05,10.10
2015,09,26,09,06,10.10
2015,09,26,09,07,10.10
2015,09,26,09,08,10.10
2015,09,26,09,09,10.20
2015,09,26,09,10,10.30
2015,09,26,09,11,10.40
2015,09,26,09,12,10.60
2015,09,26,09,13,10.70
2015,09,26,09,14,10.80
2015,09,26,09,15,10.90
2015,09,26,09,16,10.90
2015,09,26,09,17,11.00
2015,09,26,09,18,11.10
2015,09,26,09,19,11.10
2015,09,26,09,20,11.20
2015,09,26,09,21,11.30
2015,09,26,09,22,11.40
2015,09,26,09,23,11.50
2015,09,26,09,24,11.60
2015,09,26,09,25,11.70
2015,09,26,09,26,11.80
2015,09,26,09,27,11.90
2015,09,26,09,28,12.00
2015,09,26,09,29,12.10
2015,09,26,09,30,12.20
2015,09,26,09,31,12.30
2015,09,26,09,32,12.40
2015,09,26,09,33,12.40
2015,09,26,09,34,12.50
2015,09,26,09,35,12.50
2015,09,26,09,36,12.60
2015,09,26,09,37,12.60
2015,09,26,09,38,12.60
2015,09,26,09,39,12.50
2015,09,26,09,40,12.60
2015,09,26,09,41,12.60
2015,09,26,09,42,12.70
2015,09,26,09,43,12.80
2015,09,26,09,44,12.80
2015,09,26,09,45,12.90
2015,09,26,09,46,13.00
2015,09,26,09,47,13.00
2015,09,26,09,48,13.00
2015,09,26,09,49,13.00
2015,09,26,09,50,12.80
2015,09,26,09,51,12.70
2015,09,26,09,52,12.60
2015,09,26,09,53,12.60
2015,09,26,09,54,12.60
2015,09,26,09,55,12.50
2015,09,26,09,56,12.50
2015,09,26,09,57,12.50
2015,09,26,09,58,12.50
2015,09,26,09,59,12.40
2015,09,26,10,00,12.30
2015,09,26,10,01,12.30
2015,09,26,10,02,12.30
2015,09,26,10,03,12.30
2015,09,26,10,04,12.30
2015,09,26,10,05,12.30
2015,09,26,10,06,12.30
2015,09,26,10,07,12.30
2015,09,26,10,08,12.30
2015,09,26,10,09,12.30
2015,09,26,10,10,12.20
2015,09,26,10,11,12.20
2015,09,26,10,12,12.20
2015,09,26,10,13,12.20
2015,09,26,10,14,12.20
2015,09,26,10,15,12.20
2015,09,26,10,16,12.20
2015,09,26,10,17,12.20
2015,09,26,10,18,12.30
2015,09,26,10,19,12.30
2015,09,26,10,20,12.30
2015,09,26,10,21,12.30
2015,09,26,10,22,12.40
2015,09,26,10,23,12.50
2015,09,26,10,24,12.60
2015,09,26,10,25,12.60
2015,09,26,10,26,12.60
2015,09,26,10,27,12.60
2015,09,26,10,28,12.70
2015,09,26,10,29,12.80
2015,09,26,10,30,13.00
2015,09,26,10,31,13.10
2015,09,26,10,32,13.10
2015,09,26,10,33,13.00
2015,09,26,10,34,13.00
2015,09,26,10,35,13.00
2015,09,26,10,36,12.90
2015,09,26,10,37,12.90
2015,09,26,10,38,12.80
2015,09,26,10,39,12.80
2015,09,26,10,40,13.00
2015,09,26,10,41,13.00
2015,09,26,10,42,13.10
2015,09,26,10,43,13.20
2015,09,26,10,44,13.30
2015,09,26,10,45,13.30
2015,09,26,10,46,13.30
2015,09,26,10,47,13.30
2015,09,26,10,48,13.30
2015,09,26,10,49,13.30
2015,09,26,10,50,13.30
2015,09,26,10,51,13.30
2015,09,26,10,52,13.20
2015,09,26,10,53,13.20
2015,09,26,10,54,13.20
2015,09,26,10,55,13.20
2015,09,26,10,56,13.30
2015,09,26,10,57,13.30
2015,09,26,10,58,13.30
2015,09,26,10,59,13.40
2015,09,26,11,00,13.50
2015,09,26,11,01,13.30
2015,09,26,11,02,13.30
2015,09,26,11,03,13.30
2015,09,26,11,04,13.30
2015,09,26,11,05,13.30
2015,09,26,11,06,13.40
2015,09,26,11,07,13.40
2015,09,26,11,08,13.40
2015,09,26,11,09,13.30
2015,09,26,11,10,13.30
2015,09,26,11,11,13.30
2015,09,26,11,12,13.20
2015,09,26,11,13,13.30
2015,09,26,11,14,13.30
2015,09,26,11,15,13.20
2015,09,26,11,16,13.10
2015,09,26,11,17,13.10
2015,09,26,11,18,13.10
2015,09,26,11,19,13.10
2015,09,26,11,20,13.30
2015,09,26,11,21,13.30
2015,09,26,11,22,13.40
2015,09,26,11,23,13.40
2015,09,26,11,24,13.40
2015,09,26,11,25,13.30
2015,09,26,11,26,13.30
2015,09,26,11,27,13.30
2015,09,26,11,28,13.30
2015,09,26,11,29,13.30
2015,09,26,11,30,13.40
2015,09,26,11,31,13.50
2015,09,26,11,32,13.40
2015,09,26,11,33,13.40
2015,09,26,11,34,13.50
2015,09,26,11,35,13.40
2015,09,26,11,36,13.30
2015,09,26,11,37,13.30
2015,09,26,11,38,13.20
2015,09,26,11,39,13.20
2015,09,26,11,40,13.20
2015,09,26,11,41,13.20
2015,09,26,11,42,13.30
2015,09,26,11,43,13.30
2015,09,26,11,44,13.30
2015,09,26,11,45,13.40
2015,09,26,11,46,13.60
2015,09,26,11,47,13.60
2015,09,26,11,48,13.70
2015,09,26,11,49,13.70
2015,09,26,11,50,13.70
2015,09,26,11,51,13.60
2015,09,26,11,52,13.60
2015,09,26,11,53,13.60
2015,09,26,11,54,13.60
2015,09,26,11,55,13.60
2015,09,26,11,56,13.70
2015,09,26,11,57,13.70
2015,09,26,11,58,13.90
2015,09,26,11,59,13.90
2015,09,26,12,00,13.90
2015,09,26,12,01,13.80
2015,09,26,12,02,13.80
2015,09,26,12,03,13.80
2015,09,26,12,04,13.70
2015,09,26,12,05,13.70
2015,09,26,12,06,13.70
2015,09,26,12,07,13.80
2015,09,26,12,08,13.90
2015,09,26,12,09,14.00
2015,09,26,12,10,13.90
2015,09,26,12,11,13.90
2015,09,26,12,12,13.90
2015,09,26,12,13,14.00
2015,09,26,12,14,14.10
2015,09,26,12,15,14.20
2015,09,26,12,16,14.20
2015,09,26,12,17,14.20
2015,09,26,12,18,14.30
2015,09,26,12,19,14.30
2015,09,26,12,20,14.30
2015,09,26,12,21,14.20
2015,09,26,12,22,14.30
2015,09,26,12,23,14.40
2015,09,26,12,24,14.30
2015,09,26,12,25,14.20
2015,09,26,12,26,14.30
2015,09,26,12,27,14.40
2015,09,26,12,28,14.30
2015,09,26,12,29,14.30
2015,09,26,12,30,14.20
2015,09,26,12,31,14.20
2015,09,26,12,32,14.10
2015,09,26,12,33,14.00
2015,09,26,12,34,14.00
2015,09,26,12,35,14.10
2015,09,26,12,36,14.00
2015,09,26,12,37,14.00
2015,09,26,12,38,13.90
2015,09,26,12,39,13.80
2015,09,26,12,40,13.90
2015,09,26,12,41,14.00
2015,09,26,12,42,14.10
2015,09,26,12,43,14.10
2015,09,26,12,44,14.00
2015,09,26,12,45,13.90
2015,09,26,12,46,13.90
2015,09,26,12,47,13.80
2015,09,26,12,48,13.80
2015,09,26,12,49,13.80
2015,09,26,12,50,13.90
2015,09,26,12,51,14.00
2015,09,26,12,52,14.10
2015,09,26,12,53,14.20
2015,09,26,12,54,14.10
2015,09,26,12,55,14.10
2015,09,26,12,56,14.00
2015,09,26,12,57,13.90
2015,09,26,12,58,13.80
2015,09,26,12,59,13.70
2015,09,26,13,00,13.70
2015,09,26,13,01,13.70
2015,09,26,13,02,13.70
2015,09,26,13,03,13.80
2015,09,26,13,04,13.70
2015,09,26,13,05,13.70
2015,09,26,13,06,13.70
2015,09,26,13,07,13.60
2015,09,26,13,08,13.60
2015,09,26,13,09,13.60
2015,09,26,13,10,13.60
2015,09,26,13,11,13.70
2015,09,26,13,12,13.60
2015,09,26,13,13,13.70
2015,09,26,13,14,13.80
2015,09,26,13,15,13.80
2015,09,26,13,16,13.80
2015,09,26,13,17,13.90
2015,09,26,13,18,14.00
2015,09,26,13,19,14.20
2015,09,26,13,20,14.40
2015,09,26,13,21,14.50
2015,09,26,13,22,14.50
2015,09,26,13,23,14.50
2015,09,26,13,24,14.60
2015,09,26,13,25,14.60
2015,09,26,13,26,14.60
2015,09,26,13,27,14.50
2015,09,26,13,28,14.30
2015,09,26,13,29,14.20
2015,09,26,13,30,14.20
2015,09,26,13,31,14.20
2015,09,26,13,32,14.20
2015,09,26,13,33,14.20
2015,09,26,13,34,14.10
2015,09,26,13,35,14.00
2015,09,26,13,36,13.90
2015,09,26,13,37,14.00
2015,09,26,13,38,14.10
2015,09,26,13,39,14.10
2015,09,26,13,40,14.10
2015,09,26,13,41,14.20
2015,09,26,13,42,14.20
2015,09,26,13,43,14.20
2015,09,26,13,44,14.30
2015,09,26,13,45,14.40
2015,09,26,13,46,14.40
2015,09,26,13,47,14.40
2015,09,26,13,48,14.50
2015,09,26,13,49,14.50
2015,09,26,13,50,14.50
2015,09,26,13,51,14.40
2015,09,26,13,52,14.40
2015,09,26,13,53,14.30
2015,09,26,13,54,14.50
2015,09,26,13,55,14.60
2015,09,26,13,56,14.60
2015,09,26,13,57,14.60
2015,09,26,13,58,14.80
2015,09,26,13,59,14.90
2015,09,26,14,00,15.10
2015,09,26,14,01,15.00
2015,09,26,14,02,15.00
2015,09,26,14,03,15.10
2015,09,26,14,04,15.10
2015,09,26,14,05,15.10
2015,09,26,14,06,15.10
2015,09,26,14,07,15.10
2015,09,26,14,08,15.00
2015,09,26,14,09,14.90
2015,09,26,14,10,14.80
2015,09,26,14,11,14.90
2015,09,26,14,12,14.90
2015,09,26,14,13,14.90
2015,09,26,14,14,14.90
2015,09,26,14,15,14.90
2015,09,26,14,16,15.00
2015,09,26,14,17,15.00
2015,09,26,14,18,15.10
2015,09,26,14,19,15.30
2015,09,26,14,20,15.30
2015,09,26,14,21,15.40
2015,09,26,14,22,15.50
2015,09,26,14,23,15.60
2015,09,26,14,24,15.70
2015,09,26,14,25,15.80
2015,09,26,14,26,15.80
2015,09,26,14,27,15.80
2015,09,26,14,28,15.80
2015,09,26,14,29,15.90
2015,09,26,14,30,15.90
2015,09,26,14,31,16.00
2015,09,26,14,32,16.10
2015,09,26,14,33,16.10
2015,09,26,14,34,16.10
2015,09,26,14,35,16.10
2015,09,26,14,36,16.10
2015,09,26,14,37,16.10
2015,09,26,14,38,16.10
2015,09,26,14,39,16.20
2015,09,26,14,40,16.20
2015,09,26,14,41,16.30
2015,09,26,14,42,16.30
2015,09,26,14,43,16.30
2015,09,26,14,44,16.40
2015,09,26,14,45,16.40
2015,09,26,14,46,16.40
2015,09,26,14,47,16.40
2015,09,26,14,48,16.40
2015,09,26,14,49,16.40
2015,09,26,14,50,16.50
2015,09,26,14,51,16.60
2015,09,26,14,52,16.60
2015,09,26,14,53,16.60
2015,09,26,14,54,16.60
2015,09,26,14,55,16.70
2015,09,26,14,56,16.70
2015,09,26,14,57,16.70
2015,09,26,14,58,16.60
2015,09,26,14,59,16.60
2015,09,26,15,00,16.70
2015,09,26,15,01,16.70
2015,09,26,15,02,16.70
2015,09,26,15,03,16.70
2015,09,26,15,04,16.70
2015,09,26,15,05,16.70
2015,09,26,15,06,16.70
2015,09,26,15,07,16.80
2015,09,26,15,08,16.90
2015,09,26,15,09,16.90
2015,09,26,15,10,16.90
2015,09,26,15,11,17.00
2015,09,26,15,12,16.90
2015,09,26,15,13,16.90
2015,09,26,15,14,17.00
2015,09,26,15,15,17.00
2015,09,26,15,16,17.00
2015,09,26,15,17,17.00
2015,09,26,15,18,17.00
2015,09,26,15,19,17.00
2015,09,26,15,20,17.00
2015,09,26,15,21,17.10
2015,09,26,15,22,17.20
2015,09,26,15,23,17.20
2015,09,26,15,24,17.20
2015,09,26,15,25,17.20
2015,09,26,15,26,17.20
2015,09,26,15,27,17.10
2015,09,26,15,28,17.20
2015,09,26,15,29,17.10
2015,09,26,15,30,17.10
2015,09,26,15,31,17.10
2015,09,26,15,32,17.10
2015,09,26,15,33,17.10
2015,09,26,15,34,17.00
2015,09,26,15,35,17.10
2015,09,26,15,36,17.00
2015,09,26,15,37,16.80
2015,09,26,15,38,16.60
2015,09,26,15,39,16.40
2015,09,26,15,40,16.10
2015,09,26,15,41,15.80
2015,09,26,15,42,15.50
2015,09,26,15,43,15.30
2015,09,26,15,44,15.10
2015,09,26,15,45,15.00
2015,09,26,15,46,14.90
2015,09,26,15,47,14.80
2015,09,26,15,48,14.70
2015,09,26,15,49,14.60
2015,09,26,15,50,14.50
2015,09,26,15,51,14.30
2015,09,26,15,52,14.20
2015,09,26,15,53,14.20
2015,09,26,15,54,14.20
2015,09,26,15,55,14.00
2015,09,26,15,56,13.90
2015,09,26,15,57,13.80
2015,09,26,15,58,13.70
2015,09,26,15,59,13.70
2015,09,26,16,00,13.70
2015,09,26,16,01,13.70
2015,09,26,16,02,13.90
2015,09,26,16,03,13.90
2015,09,26,16,04,14.00
2015,09,26,16,05,13.90
2015,09,26,16,06,13.90
2015,09,26,16,07,13.90
2015,09,26,16,08,13.90
2015,09,26,16,09,14.00
2015,09,26,16,10,14.00
2015,09,26,16,11,14.10
2015,09,26,16,12,14.10
2015,09,26,16,13,14.10
2015,09,26,16,14,14.00
2015,09,26,16,15,14.00
2015,09,26,16,16,14.10
2015,09,26,16,17,14.00
2015,09,26,16,18,13.90
2015,09,26,16,19,13.80
2015,09,26,16,20,13.80
2015,09,26,16,21,13.80
2015,09,26,16,22,13.90
2015,09,26,16,23,14.00
2015,09,26,16,24,13.90
2015,09,26,16,25,13.80
2015,09,26,16,26,13.60
2015,09,26,16,27,13.60
2015,09,26,16,28,13.60
2015,09,26,16,29,13.50
2015,09,26,16,30,13.50
2015,09,26,16,31,13.60
2015,09,26,16,32,13.70
2015,09,26,16,33,13.70
2015,09,26,16,34,13.70
2015,09,26,16,35,13.70
2015,09,26,16,36,13.60
2015,09,26,16,37,13.50
2015,09,26,16,38,13.50
2015,09,26,16,39,13.50
2015,09,26,16,40,13.40
2015,09,26,16,41,13.40
2015,09,26,16,42,13.30
2015,09,26,16,43,13.30
2015,09,26,16,44,13.30
2015,09,26,16,45,13.30
2015,09,26,16,46,13.20
2015,09,26,16,47,13.20
2015,09,26,16,48,13.20
2015,09,26,16,49,13.20
2015,09,26,16,50,13.30
2015,09,26,16,51,13.30
2015,09,26,16,52,13.30
2015,09,26,16,53,13.30
2015,09,26,16,54,13.40
2015,09,26,16,55,13.40
2015,09,26,16,56,13.50
2015,09,26,16,57,13.50
2015,09,26,16,58,13.50
2015,09,26,16,59,13.50
2015,09,26,17,00,13.50
2015,09,26,17,01,13.50
2015,09,26,17,02,13.50
2015,09,26,17,03,13.50
2015,09,26,17,04,13.50
2015,09,26,17,05,13.50
2015,09,26,17,06,13.50
2015,09,26,17,07,13.50
2015,09,26,17,08,13.50
2015,09,26,17,09,13.50
2015,09,26,17,10,13.40
2015,09,26,17,11,13.50
2015,09,26,17,12,13.50
2015,09,26,17,13,13.40
2015,09,26,17,14,13.40
2015,09,26,17,15,13.30
2015,09,26,17,16,13.30
2015,09,26,17,17,13.20
2015,09,26,17,18,13.30
2015,09,26,17,19,13.30
2015,09,26,17,20,13.20
2015,09,26,17,21,13.20
2015,09,26,17,22,13.20
2015,09,26,17,23,13.10
2015,09,26,17,24,13.10
2015,09,26,17,25,13.00
2015,09,26,17,26,13.00
2015,09,26,17,27,13.00
2015,09,26,17,28,13.00
2015,09,26,17,29,13.00
2015,09,26,17,30,13.00
2015,09,26,17,31,12.90
2015,09,26,17,32,12.90
2015,09,26,17,33,12.90
2015,09,26,17,34,12.90
2015,09,26,17,35,12.90